Wind_Speed
2 2 3 3 2 2 2 2 2 2 2 2 3 3 3 3 3 3 4 4 4 4 4 5 6 7 8 8 8 8 8 8 8 8 9 8 8 7 7 7 8 8 8
3 3 3 3 2 2 2 2 2 3 3 4 4 4 4 4 3 4 4 5 5 5 5 6 6 7 8 8 8 9 9 9 9 9 9 9 8 8 8 8 8 9 9
4 4 4 5 4 3 3 2 3 4 4 5 5 5 5 4 5 5 5 5 6 6 6 7 7 7 8 9 9 9 9 9 9 9 10 9 9 9 9 9 9 9 8
5 5 5 4 3 3 2 2 3 4 5 5 6 5 5 5 5 6 6 6 6 6 7 7 8 8 9 10 10 10 10 10 10 10 10 10 10 10 9 9 9 9 9
6 5 5 4 3 3 3 3 4 5 5 6 6 6 6 6 6 6 6 7 7 7 8 8 8 8 9 10 10 11 10 11 11 11 11 11 11 10 10 10 10 10 9
6 5 5 4 4 4 4 4 4 5 5 6 7 7 7 7 7 6 6 6 6 7 8 8 9 9 9 10 11 11 11 11 11 12 11 11 11 11 10 10 10 10 10
6 6 5 5 4 4 4 3 4 5 5 6 7 8 8 7 6 6 6 6 6 7 7 8 8 9 10 10 11 11 11 11 11 12 11 11 11 11 10 10 10 10 10
6 6 6 4 4 4 3 3 4 5 5 7 8 7 7 7 7 6 6 6 6 6 7 7 8 9 10 10 10 11 11 11 11 11 11 11 11 11 11 11 10 10 10
6 6 5 4 3 3 3 3 5 5 6 7 7 8 8 7 6 6 6 6 6 6 6 6 7 8 9 9 10 11 11 11 11 11 11 11 11 12 11 11 10 10 10
6 5 5 4 3 2 2 3 4 5 5 7 7 8 8 8 7 7 6 6 5 5 5 4 5 6 7 8 9 10 11 11 11 11 11 11 11 12 11 11 10 10 10
6 6 5 4 3 2 2 3 4 4 5 6 7 8 8 8 8 7 7 6 5 4 4 4 4 5 6 7 8 9 10 10 11 11 11 11 11 11 11 11 10 10 10
7 6 5 4 3 2 1 3 3 4 5 7 7 8 8 8 8 8 7 6 5 3 3 3 3 4 6 7 8 8 9 9 10 10 10 10 11 11 11 11 10 10 9
6 5 5 4 2 1 1 2 3 4 5 7 8 9 9 9 9 8 7 6 5 4 3 3 3 4 5 6 7 8 8 8 9 9 10 10 10 9 10 10 10 10 10
6 6 5 4 2 1 0 1 3 4 6 7 9 9 9 10 9 8 7 6 6 5 4 3 3 3 4 5 5 6 7 7 8 9 9 9 9 9 9 9 9 10 9
6 5 5 4 2 1 0 1 2 4 6 7 9 9 10 10 9 8 7 7 6 5 4 3 2 1 3 4 4 5 6 6 7 8 8 8 9 8 8 8 8 9 9
5 5 5 4 3 2 1 1 2 4 6 7 9 9 10 9 9 8 8 7 6 5 4 3 2 1 2 3 4 4 4 5 6 6 6 7 7 8 7 7 7 7 8
6 5 5 5 4 3 1 1 2 3 5 7 8 9 10 10 9 9 8 8 7 6 5 4 4 3 3 3 4 4 4 4 5 5 5 5 6 6 6 7 6 7 7
6 5 6 6 4 3 2 2 2 3 5 7 8 9 9 10 10 9 9 8 7 6 6 5 5 5 4 4 4 4 5 4 4 4 3 4 4 5 5 5 5 5 6
7 6 6 6 5 3 3 2 2 3 5 7 8 8 9 10 10 10 9 9 8 7 6 6 6 6 6 6 5 5 5 5 4 3 3 3 3 4 4 4 4 4 5
7 7 6 7 6 4 3 2 2 3 5 6 7 8 9 9 10 10 9 9 8 7 7 7 7 7 7 7 6 6 5 5 4 3 3 2 2 3 3 2 3 3 4
7 7 7 7 6 4 3 2 2 3 4 5 6 7 8 9 9 10 9 9 9 8 8 8 7 7 7 7 6 6 5 5 4 4 3 2 2 2 1 1 1 1 3
7 7 7 7 6 5 3 2 2 2 3 5 6 7 7 8 8 9 9 9 9 8 8 8 8 7 7 7 7 6 6 6 5 4 4 3 2 2 1 0 1 2 2
9 8 8 7 7 5 4 3 1 2 2 4 5 6 7 8 8 8 8 9 9 8 8 8 8 7 7 7 7 6 6 6 6 5 4 3 2 2 1 1 1 2 2
9 8 7 8 8 6 5 3 2 1 1 3 4 5 6 7 7 8 8 8 8 8 8 8 8 8 7 6 6 6 5 6 6 5 4 4 3 3 2 2 2 2 3
9 9 8 8 8 7 5 4 3 1 1 2 3 4 5 6 6 7 7 7 7 7 7 7 7 7 7 6 6 5 5 5 5 5 5 4 4 4 3 3 3 3 4
11 10 9 9 9 7 6 5 4 2 2 1 2 3 4 4 5 6 6 6 7 7 7 7 7 7 7 6 6 6 5 5 5 4 4 4 4 4 4 4 3 3 4
Wind_Direction
270 302 319 306 297 274 298 314 317 336 348 349 340 333 340 330 309 298 299 293 274 265 261 249 243 238 232 229 226 224 221 220 220 219 214 215 216 212 211 209 204 201 204
269 285 303 306 290 294 308 320 328 338 346 344 343 343 339 330 316 303 295 291 286 275 270 261 250 241 233 231 231 228 224 220 220 218 217 218 217 215 213 212 208 206 206
265 276 285 295 301 305 321 334 344 340 338 342 343 338 332 326 317 306 296 289 285 278 271 265 251 243 236 233 233 232 228 223 219 219 219 220 220 222 219 216 213 210 211
266 276 286 291 301 308 319 342 352 348 346 346 343 338 330 320 314 307 297 286 283 277 273 266 254 246 238 237 235 235 232 227 221 220 218 219 223 224 223 219 215 216 219
270 278 286 288 297 310 322 330 341 349 355 350 342 335 326 317 313 309 302 292 284 279 273 265 258 249 243 239 236 234 231 227 223 221 221 221 222 225 224 221 218 219 223
274 279 284 283 293 301 307 328 340 347 350 343 336 333 328 323 317 313 308 297 289 284 276 266 258 250 243 238 236 234 229 224 224 223 223 223 223 224 224 223 220 220 225
271 275 279 278 288 302 319 338 342 346 348 340 338 337 336 330 321 316 310 304 293 285 276 264 256 246 241 238 236 233 228 224 224 223 225 225 223 223 226 225 220 222 227
271 275 280 283 291 294 310 333 347 354 351 345 344 345 341 333 323 320 322 315 306 292 277 264 257 247 241 237 233 230 227 225 225 224 227 226 225 225 226 225 224 226 229
270 277 281 282 280 285 312 343 354 354 353 351 350 349 347 344 339 332 330 323 312 299 285 269 253 245 240 237 232 229 226 226 226 223 223 225 225 225 224 224 227 229 232
271 274 279 276 270 280 331 346 353 355 357 356 352 351 349 349 345 343 340 335 325 311 293 274 253 242 237 233 229 226 227 226 225 224 222 223 222 223 224 225 230 232 234
270 267 266 265 262 270 331 344 352 358 360 357 355 356 355 352 349 346 342 338 335 321 300 284 263 240 232 230 226 224 223 222 223 223 220 221 222 224 226 228 231 234 234
268 266 260 260 250 276 320 348 356 1 4 2 2 1 0 357 352 348 346 343 341 334 311 289 267 243 232 228 224 221 220 220 219 220 219 220 221 223 227 231 233 234 236
259 262 260 244 255 267 312 5 12 8 13 12 11 6 4 0 356 355 353 352 345 334 323 298 271 250 234 228 224 220 220 219 216 218 219 220 224 226 228 231 232 232 234
256 252 250 239 227 224 259 7 11 14 18 16 15 10 5 2 2 4 3 0 358 348 338 321 288 253 232 225 218 215 213 211 208 214 216 219 223 227 228 229 230 228 232
252 246 249 225 205 199 248 357 12 19 20 15 13 10 7 6 8 10 11 10 7 2 358 352 322 249 213 207 204 202 202 199 201 209 213 217 220 224 228 227 228 229 233
243 242 239 204 201 201 168 32 35 26 18 16 15 11 9 9 10 12 13 12 11 13 20 32 54 107 159 177 181 184 182 186 196 202 211 216 220 224 227 226 231 236 243
230 230 227 201 192 186 155 65 46 31 22 20 16 13 13 13 13 14 19 20 23 31 43 56 74 100 126 141 152 162 165 171 189 200 209 213 219 224 228 227 235 243 246
228 223 212 197 185 176 163 108 60 36 28 25 21 17 17 19 20 21 24 27 33 44 55 66 76 92 109 121 127 137 144 152 170 185 198 207 213 219 225 233 243 246 245
225 215 201 195 184 177 161 124 69 43 31 26 21 19 19 22 26 29 31 34 42 52 61 71 79 90 100 108 116 125 130 136 145 157 170 185 196 204 212 229 244 244 246
223 216 202 192 184 178 158 129 82 48 35 29 26 23 24 27 31 33 36 42 49 56 66 74 80 88 96 102 108 114 118 126 129 130 134 146 170 179 197 226 240 243 252
220 209 199 195 190 183 160 136 99 58 37 32 29 27 29 31 35 38 41 46 53 61 70 74 78 85 92 97 102 106 108 110 108 103 101 97 109 127 174 248 259 261 265
211 207 198 192 186 174 161 142 103 66 42 35 31 32 33 36 40 43 46 51 56 64 71 74 77 82 89 91 95 100 102 100 94 86 81 79 89 96 77 358 357 353 321
210 206 195 190 187 176 171 164 128 79 52 43 37 38 39 41 44 48 50 54 59 66 71 73 76 79 83 87 91 95 93 90 91 84 82 75 67 69 65 31 3 355 333
206 204 197 194 192 187 183 178 163 116 71 52 44 44 43 44 48 51 54 57 61 67 71 71 73 76 79 83 85 86 88 81 80 77 74 66 52 43 39 26 18 8 359
207 205 205 201 195 191 190 187 179 168 122 74 56 52 49 48 52 55 57 60 63 68 71 72 72 72 74 76 78 79 80 78 74 74 65 59 50 52 53 38 26 15 5
210 208 206 205 199 197 199 197 190 184 167 124 70 54 53 52 54 55 57 62 65 68 70 71 72 70 69 69 73 75 74 71 67 63 52 46 43 43 40 36 18 9 5
Height
5886 5886 5886 5885 5885 5885 5884 5884 5883 5883 5882 5882 5881 5881 5881 5880 5880 5880 5879 5879 5879 5879 5880 5880 5880 5881 5882 5882 5883 5884 5885 5886 5887 5888 5889 5891 5892 5893 5894 5895 5896 5897 5898
5886 5886 5886 5885 5885 5884 5884 5883 5883 5882 5882 5881 5881 5880 5880 5879 5879 5879 5878 5878 5878 5878 5878 5879 5879 5880 5880 5881 5882 5883 5884 5885 5886 5887 5889 5890 5891 5892 5893 5894 5895 5896 5898
5886 5885 5885 5885 5884 5884 5884 5883 5883 5882 5881 5881 5880 5879 5879 5878 5878 5877 5877 5877 5877 5877 5877 5877 5877 5878 5879 5880 5881 5881 5882 5883 5885 5886 5887 5889 5890 5891 5892 5893 5895 5896 5897
5885 5885 5885 5885 5884 5884 5883 5883 5882 5882 5881 5880 5879 5878 5878 5877 5877 5876 5876 5875 5875 5875 5875 5875 5876 5876 5877 5878 5879 5880 5881 5882 5883 5885 5886 5887 5889 5890 5891 5892 5894 5895 5896
5885 5885 5884 5884 5884 5884 5883 5883 5882 5881 5880 5879 5878 5878 5877 5876 5875 5875 5874 5874 5873 5873 5873 5874 5874 5874 5876 5877 5878 5878 5880 5881 5882 5883 5885 5886 5887 5889 5890 5891 5893 5894 5895
5884 5884 5884 5884 5884 5883 5883 5882 5881 5881 5880 5879 5878 5876 5875 5875 5874 5873 5872 5872 5872 5871 5871 5872 5872 5873 5873 5874 5876 5877 5878 5879 5881 5882 5883 5885 5886 5888 5889 5890 5892 5893 5895
5883 5883 5883 5883 5883 5883 5882 5882 5881 5880 5879 5878 5877 5876 5874 5873 5872 5872 5871 5870 5870 5869 5869 5870 5870 5871 5871 5872 5874 5875 5876 5878 5879 5881 5882 5883 5885 5886 5888 5890 5891 5892 5894
5883 5882 5882 5882 5882 5882 5881 5881 5880 5879 5878 5877 5876 5875 5873 5872 5871 5870 5869 5868 5867 5867 5867 5867 5868 5868 5869 5870 5872 5873 5874 5876 5878 5879 5880 5882 5884 5885 5887 5888 5890 5891 5892
5882 5882 5882 5881 5881 5881 5881 5880 5880 5879 5878 5877 5875 5874 5873 5871 5870 5869 5867 5867 5866 5865 5865 5865 5866 5867 5867 5868 5869 5871 5873 5874 5876 5878 5879 5881 5882 5884 5885 5887 5889 5890 5891
5881 5881 5881 5881 5881 5881 5881 5880 5879 5879 5877 5876 5875 5873 5872 5870 5869 5868 5866 5866 5865 5864 5864 5864 5864 5865 5866 5867 5868 5869 5871 5872 5874 5876 5878 5879 5881 5882 5884 5886 5888 5889 5890
5880 5880 5880 5880 5880 5880 5880 5880 5879 5878 5877 5876 5874 5873 5871 5870 5868 5867 5866 5865 5864 5863 5863 5863 5863 5863 5864 5865 5866 5868 5869 5871 5873 5874 5876 5877 5879 5881 5883 5885 5886 5888 5889
5879 5879 5879 5880 5880 5880 5880 5880 5879 5878 5877 5875 5874 5872 5871 5869 5868 5866 5865 5864 5863 5862 5862 5861 5862 5862 5863 5864 5865 5866 5868 5870 5871 5873 5874 5876 5878 5880 5881 5883 5885 5886 5887
5878 5878 5879 5879 5879 5879 5879 5879 5879 5878 5876 5875 5873 5872 5871 5869 5867 5866 5864 5863 5862 5861 5861 5860 5860 5861 5861 5862 5864 5865 5867 5868 5869 5871 5873 5875 5877 5878 5880 5882 5883 5885 5886
5877 5877 5878 5878 5879 5879 5879 5879 5878 5878 5876 5875 5874 5872 5871 5869 5867 5866 5864 5863 5861 5861 5860 5860 5860 5860 5861 5862 5863 5864 5866 5867 5869 5871 5873 5874 5876 5877 5879 5881 5882 5883 5885
5876 5876 5877 5877 5878 5879 5879 5879 5878 5878 5877 5876 5874 5873 5871 5869 5867 5866 5864 5863 5861 5860 5859 5859 5859 5859 5860 5861 5863 5864 5865 5867 5868 5870 5872 5873 5875 5876 5878 5880 5881 5882 5884
5875 5875 5876 5877 5878 5878 5879 5879 5879 5878 5877 5876 5874 5873 5871 5869 5868 5866 5864 5863 5861 5860 5859 5859 5859 5859 5860 5861 5862 5864 5865 5867 5868 5870 5871 5873 5874 5876 5877 5879 5880 5881 5882
5874 5875 5876 5877 5878 5878 5879 5879 5879 5878 5877 5876 5875 5873 5872 5870 5868 5866 5865 5863 5862 5860 5860 5859 5859 5859 5860 5861 5862 5864 5865 5867 5868 5870 5871 5873 5874 5875 5877 5878 5879 5880 5881
5873 5874 5875 5876 5877 5878 5879 5879 5879 5879 5878 5877 5875 5874 5872 5871 5869 5867 5865 5864 5862 5861 5861 5860 5860 5861 5861 5862 5863 5864 5866 5867 5868 5870 5871 5872 5874 5875 5876 5878 5879 5880 5880
5872 5874 5875 5876 5877 5878 5879 5879 5879 5879 5878 5877 5876 5875 5873 5871 5870 5868 5866 5865 5864 5863 5862 5862 5862 5862 5862 5863 5864 5865 5867 5868 5869 5870 5872 5873 5874 5875 5876 5877 5878 5879 5880
5872 5873 5875 5876 5877 5878 5879 5879 5880 5879 5879 5878 5877 5875 5874 5872 5871 5869 5868 5866 5865 5864 5864 5864 5863 5864 5864 5865 5866 5867 5868 5869 5870 5871 5872 5873 5874 5875 5876 5877 5878 5878 5879
5871 5872 5874 5876 5877 5878 5879 5879 5880 5880 5879 5879 5878 5876 5875 5873 5872 5870 5869 5868 5867 5866 5866 5866 5866 5866 5866 5867 5868 5869 5869 5870 5871 5872 5873 5874 5874 5875 5876 5877 5878 5878 5879
5870 5872 5874 5875 5877 5878 5879 5880 5880 5880 5880 5879 5879 5877 5876 5875 5873 5872 5871 5870 5869 5868 5868 5868 5868 5868 5869 5869 5870 5871 5871 5873 5873 5873 5874 5875 5875 5876 5876 5877 5877 5878 5878
5870 5871 5873 5875 5877 5878 5879 5880 5880 5880 5880 5880 5879 5879 5878 5876 5875 5874 5873 5872 5871 5870 5870 5870 5870 5870 5871 5871 5872 5873 5873 5874 5874 5875 5875 5875 5876 5876 5877 5877 5877 5877 5878
5869 5871 5873 5874 5876 5878 5879 5880 5880 5881 5881 5881 5880 5880 5879 5878 5876 5875 5874 5874 5873 5873 5872 5872 5872 5873 5873 5873 5874 5874 5875 5875 5876 5876 5876 5876 5876 5876 5877 5877 5877 5877 5877
5868 5870 5872 5874 5876 5877 5879 5880 5880 5881 5881 5881 5881 5881 5880 5879 5878 5877 5876 5876 5875 5875 5875 5875 5875 5875 5875 5875 5875 5876 5876 5876 5877 5877 5877 5877 5877 5877 5877 5877 5877 5877 5877
5867 5869 5871 5873 5875 5877 5878 5879 5880 5881 5881 5882 5882 5881 5881 5880 5880 5879 5878 5878 5877 5877 5877 5877 5877 5877 5877 5877 5877 5877 5877 5878 5878 5878 5878 5878 5878 5878 5878 5877 5877 5877 5877